Regional Weather Roundup
Issued by NWS Columbia, SC

Home | Current Version | Previous Version | Text Only | Print | Product List | Glossary On
Versions: 1 2 3 4 5 6 7 8 9 10 11 12 13 14 15 16 17 18 19 20 21 22 23 24 25 26 27
000
ASUS42 KCAE 312210
RWRCAE
REGIONAL WEATHER ROUNDUP
NATIONAL WEATHER SERVICE COLUMBIA SC
600 PM EDT TUE MAY 31 2016

NOTE: "FAIR" INDICATES FEW OR NO CLOUDS BELOW 12,000 FEET WITH NO
SIGNIFICANT WEATHER AND/OR OBSTRUCTIONS TO VISIBILITY.

NOT ALL STATIONS ARE QUALITY CONTROLLED BY THE NATIONAL
WEATHER SERVICE. USE DATA WITH CAUTION...ESPECIALLY
DEWPOINT OBSERVATIONS.

SCZ001>056-GAZ040-063>065-077-312300-
...UPSTATE SOUTH CAROLINA...

CITY           SKY/WX    TMP DP  RH WIND       PRES   REMARKS
ANDERSON       PTSUNNY   88  62  41 W5        29.91S
LIBERTY        PTCLDY    85  66  51 E10G17    29.93S
SPARTANBURG    PTSUNNY   79  66  65 N7        29.94S
CLEMSON        RAIN      80  70  71 NW9       29.93S
GREENVILLE     PTSUNNY   78  68  71 E6        29.95F
GREENWOOD      MOSUNNY   86  65  49 E3        29.92S
GREER          CLOUDY    80  66  62 N6        29.94F
ROCK HILL      MOSUNNY   86  65  49 N6        29.93R
CHESTER        PTCLDY    84  64  51 W6        29.93S
LAURENS        MOCLDY    86  70  58 NE6       29.92S


...CENTRAL SOUTH CAROLINA...

CITY           SKY/WX    TMP DP  RH WIND       PRES   REMARKS
COLUMBIA APT   MOSUNNY   90  66  45 N7        29.87S
COLUMBIA OWENS PTSUNNY   89  65  44 N5        29.88S
MCENTIRE ANGB  PTSUNNY   87  68  52 E5        29.88S
ORANGEBURG     MOSUNNY   88  67  49 CALM      29.88S
SUMTER SHAW    LGT RAIN  86  68  54 NE9       29.86S
NEWBERRY       PTCLDY    86  68  54 N7        29.93S THUNDER
AIKEN          FAIR      88  61  40 N3        29.92S
BARNWELL       FAIR      91  72  52 CALM      29.88F HX  98
MANNING        FAIR      86  68  54 N6        29.87S
LANCASTER      CLEAR     86  66  51 NE5       29.91S
WINNSBORO      CLEAR     86  66  51 NE5       29.90S


...EASTERN AND COASTAL SOUTH CAROLINA...

CITY           SKY/WX    TMP DP  RH WIND       PRES   REMARKS
MYRTLE BEACH   PTSUNNY   75  64  69 N7        29.90S
N MYRTLE BCH   CLOUDY    76  72  87 NE9       29.87S
CONWAY         MOCLDY    73  72  94 CALM      29.89S
MARION         MOCLDY    77  70  78 E9        29.89R
HARTSVILLE     MOCLDY    81  68  65 NE7       29.89S
FLORENCE       SUNNY     88  66  48 N9        29.88S
DARLINGTON     CLOUDY    80  71  74 N8        29.89F
CHARLESTON APT PTSUNNY   85  71  63 S8        29.87S
MOUNT PLEASANT FAIR      82  72  69 N7        29.88S
WALTERBORO     CLEAR     88  64  45 N5        29.89S
BEAUFORT       SUNNY     88  70  55 N6        29.88F


...EASTERN GEORGIA...

CITY           SKY/WX    TMP DP  RH WIND       PRES   REMARKS
AUGUSTA BUSH F MOSUNNY   88  67  49 SE5       29.87F
AUGUSTA DANIEL SUNNY     89  67  47 S5        29.89F
THOMSON        MOSUNNY   92  65  41 E3        29.92S
WASHINGTON     FAIR      90  68  48 E3        29.89S
CLAXTON        FAIR      91  70  50 N6        29.87S HX  96
SYLVANIA       CLEAR     91  70  50 E3        29.88F HX  96
STATESBORO     SUNNY     90  70  51 NE5       29.87F HX  95
SAVANNAH       PTSUNNY   85  72  65 E10       29.88S


...SOUTHERN NORTH CAROLINA...

CITY           SKY/WX    TMP DP  RH WIND       PRES   REMARKS
CHARLOTTE      PTSUNNY   84  61  45 VRB5      29.92S THUNDER
MONROE         SUNNY     82  64  54 NE7       29.91S
WADESBORO      PTCLDY    87  62  43 N7        29.90S
ROCKINGHAM     MOCLDY    81  68  65 N3        29.90S
RUTHERFORDTON  RAIN      66  66 100 N5        29.98F
ASHEVILLE      MOSUNNY   77  62  59 E5        30.01F

$$




USA.gov is the U.S. government's official web portal to all federal, state and local government web resources and services.